Stations météo

Publicité
St-Etienne Boutheon, France (7475): Température de l'air & dewpoint: 04.12.2019 19:00:00 - 10.12.2019 19:00:00 (CET)St-Etienne Boutheon, France (7475): Température de l'air 5cm: 04.12.2019 19:00:00 - 10.12.2019 19:00:00 (CET)St-Etienne Boutheon, France (7475): Température de l'air -20cm & Température de l'air -100cm: 04.12.2019 19:00:00 - 10.12.2019 19:00:00 (CET)St-Etienne Boutheon, France (7475): Vitesse du vent & gusts: 04.12.2019 19:00:00 - 10.12.2019 19:00:00 (CET)St-Etienne Boutheon, France (7475): Direction du vent: 04.12.2019 19:00:00 - 10.12.2019 19:00:00 (CET)St-Etienne Boutheon, France (7475): reduced air pressure: 04.12.2019 19:00:00 - 10.12.2019 19:00:00 (CET)St-Etienne Boutheon, France (7475): visibility: 04.12.2019 19:00:00 - 10.12.2019 19:00:00 (CET)St-Etienne Boutheon, France (7475): Ensoleillement: 04.12.2019 19:00:00 - 10.12.2019 19:00:00 (CET)St-Etienne Boutheon, France (7475): Quantités de précipitations: 04.12.2019 19:00:00 - 10.12.2019 19:00:00 (CET)
Date & Time tt [°C] td [°C] tt 5cm [°C] tt -20cm [°C] tt -100cm [°C] ff [km/h] ff [knt] fx [km/h] fx [knt] dd ppp [hPa] vv [km] sd [min] rr [mm]
10.12.2019 19:00:00 -0,7 -1,8 -4,8 6,7 9,8 6 3 15 8 WSW 1027,1 20 0 0,0
10.12.2019 18:00:00 0,6 -2,0 -3,9 6,9 9,8 4 2 8 5 S 1026,9 60 0 0,0
10.12.2019 17:00:00 3,4 -1,8 -0,6 6,8 9,8 0 0 11 6 N 1026,3 60 26 0,0
10.12.2019 16:00:00 5,8 -1,6 9,7 6,6 9,8 6 3 13 7 N 1026,8 56 60 0,0
10.12.2019 15:00:00 7,3 -1,2 12,4 6,4 9,8 3 2 11 6 NNW 1026,8 58 60 0,0
10.12.2019 14:00:00 6,0 -1,0 11,1 6,2 9,8 5 3 22 12 N 1027,9 44 60 0,0
10.12.2019 13:00:00 5,5 -0,1 8,6 6,0 9,8 7 4 16 8 N 1029,3 40 56 0,0
10.12.2019 12:00:00 4,8 0,7 9,7 5,9 9,8 6 4 16 9 NNW 1030,1 35 60 0,0
10.12.2019 11:00:00 4,0 0,7 4,2 5,9 9,8 5 3 11 6 NNW 1030,9 20 60 0,0
10.12.2019 10:00:00 1,6 0,6 0,0 6,1 9,8 4 2 14 8 SSE 1031,4 17 5 0,0
10.12.2019 09:00:00 1,4 0,1 0,3 6,2 9,8 4 2 17 9 NW 1031,6 17 21 0,0
10.12.2019 08:00:00 1,6 0,3 -0,5 6,3 9,8 6 4 11 6 NNW 1031,1 19 0 0,0
10.12.2019 07:00:00 2,1 0,5 0,9 6,4 9,8 8 4 23 12 N 1030,7 32 0 0,0
10.12.2019 06:00:00 2,6 0,7 1,8 6,5 9,8 12 7 28 15 NNE 1030,5 38 0 0,0
10.12.2019 05:00:00 3,6 1,0 3,2 6,5 9,8 13 7 26 14 N 1029,6 45 0 0,0
10.12.2019 04:00:00 3,7 0,9 3,1 6,6 9,8 8 4 23 12 N 1029,4 46 0 0,0
10.12.2019 03:00:00 4,0 0,7 2,6 6,7 9,8 12 6 27 15 NNW 1029,1 51 0 0,0
10.12.2019 02:00:00 3,3 0,7 1,7 6,8 9,8 4 2 17 9 N 1028,3 54 0 0,0
10.12.2019 01:00:00 4,1 0,6 2,4 7,0 9,8 11 6 37 20 N 1027,1 56 0 0,0
10.12.2019 00:00:00 4,3 0,4 2,8 7,1 9,8 14 8 39 21 NNW 1026,1 55 0 0,0
09.12.2019 23:00:00 4,8 0,7 3,4 7,3 9,8 18 10 41 22 NNW 1024,9 58 0 0,0
09.12.2019 22:00:00 5,6 1,5 2,9 7,4 9,8 22 12 49 27 NNW 1023,9 59 0 0,0
09.12.2019 21:00:00 3,8 2,0 2,6 7,5 9,8 15 8 34 19 NNE 1023,6 60 0 0,0
09.12.2019 20:00:00 4,1 2,8 2,5 7,6 9,8 7 4 26 14 N 1022,2 60 0 0,4
09.12.2019 19:00:00 4,0 2,8 3,6 7,7 9,8 21 11 55 30 N 1021,0 7 0 1,2
09.12.2019 18:00:00 5,6 2,6 4,7 7,7 9,8 19 10 66 36 NW 1018,9 60 0 0,4
09.12.2019 17:00:00 6,4 4,1 5,2 7,7 9,8 19 10 50 27 NNW 1017,3 58 2 0,4
09.12.2019 16:00:00 8,0 4,2 8,1 7,6 9,8 14 8 38 21 NNW 1016,0 50 5 0,0
09.12.2019 15:00:00 8,8 3,4 7,1 7,5 9,8 23 13 46 25 WNW 1015,3 42 16 0,0
09.12.2019 14:00:00 8,5 4,1 7,1 7,3 9,8 15 8 33 18 WNW 1014,9 50 2 0,2
09.12.2019 13:00:00 7,9 4,3 7,2 7,1 9,8 14 8 25 14 WSW 1015,1 60 5 0,0
09.12.2019 12:00:00 8,2 4,6 7,2 7,1 9,8 9 5 18 10 NW 1015,0 46 3 0,2
09.12.2019 11:00:00 7,6 4,4 5,8 7,0 9,8 4 2 21 12 SW 1014,8 60 0 0,6
09.12.2019 10:00:00 7,7 3,7 6,0 7,0 9,8 13 7 25 14 SW 1014,7 13 13 0,2
09.12.2019 09:00:00 7,3 3,7 3,7 7,1 9,8 13 7 27 14 SW 1014,7 60 0 0,0
09.12.2019 08:00:00 5,1 3,6 3,9 7,2 9,8 9 5 18 10 SSE 1014,9 60 0 0,0
09.12.2019 07:00:00 5,6 3,8 4,2 7,2 9,8 16 9 21 12 SSE 1015,1 60 0 0,0
09.12.2019 06:00:00 6,2 4,2 5,2 7,3 9,8 8 5 27 14 S 1015,4 19 0 0,4
09.12.2019 05:00:00 7,1 4,1 5,6 7,3 9,8 10 5 29 16 WSW 1015,8 10 0 0,6
09.12.2019 04:00:00 8,0 2,7 6,3 7,4 9,8 15 8 29 16 SSW 1015,0 18 0 0,0
09.12.2019 03:00:00 8,2 2,0 5,0 7,5 9,8 12 6 26 14 SW 1015,8 60 0 0,0
09.12.2019 02:00:00 8,7 1,4 5,3 7,6 9,8 12 7 32 17 W 1016,8 55 0 0,0
09.12.2019 01:00:00 8,7 2,5 7,2 7,7 9,8 12 7 32 17 W 1017,7 56 0 0,0
09.12.2019 00:00:00 11,0 4,2 7,7 7,7 9,8 15 8 24 13 W 1016,0 60 0 0,0
08.12.2019 23:00:00 11,3 6,6 8,6 7,7 9,8 7 4 22 12 SSW 1015,0 60 0 0,0
08.12.2019 22:00:00 10,7 7,4 9,0 7,7 9,8 15 8 24 13 S 1015,0 60 0 0,0
08.12.2019 21:00:00 10,6 7,8 9,0 7,6 9,8 15 8 35 19 S 1015,4 60 0 0,0
08.12.2019 20:00:00 10,5 7,2 8,9 7,6 9,8 26 14 42 23 S 1015,5 60 0 0,0
08.12.2019 19:00:00 10,3 7,2 8,4 7,6 9,8 18 10 31 17 SSW 1015,4 60 0 0,2
08.12.2019 18:00:00 9,9 7,3 8,5 7,5 9,8 18 10 31 17 S 1015,6 7 0 0,8
08.12.2019 17:00:00 12,5 5,4 11,5 7,4 9,8 18 10 39 21 SSW 1015,3 60 1 0,0
08.12.2019 16:00:00 12,9 5,3 11,2 7,2 9,8 16 8 36 19 SSW 1015,7 58 1 0,0
08.12.2019 15:00:00 13,2 5,4 13,2 6,9 9,8 18 10 36 20 SSW 1015,5 60 6 0,0
08.12.2019 14:00:00 13,3 5,2 13,7 6,6 9,8 20 11 35 19 SSW 1016,0 59 40 0,0
08.12.2019 13:00:00 13,0 5,6 12,6 6,4 9,8 21 11 36 19 S 1017,2 60 36 0,0
08.12.2019 12:00:00 12,1 5,0 13,3 6,1 9,8 20 11 34 18 S 1018,3 57 55 0,0
08.12.2019 11:00:00 11,4 5,0 12,0 6,0 9,8 18 10 30 16 S 1019,2 57 60 0,0
08.12.2019 10:00:00 10,1 4,9 9,6 6,1 9,8 16 9 27 15 SSW 1019,9 52 60 0,0
08.12.2019 09:00:00 8,3 4,9 3,5 6,1 9,8 15 8 27 15 S 1019,8 59 24 0,0
08.12.2019 08:00:00 5,7 4,2 3,1 6,2 9,8 17 9 23 12 S 1020,4 60 0 0,0
08.12.2019 07:00:00 5,6 4,1 4,2 6,3 9,8 12 6 16 9 S 1020,8 60 0 0,0
08.12.2019 06:00:00 5,9 4,1 3,1 6,4 9,9 11 6 17 9 SSE 1020,6 60 0 0,0
08.12.2019 05:00:00 5,3 3,3 1,9 6,5 9,9 10 6 25 13 S 1021,1 59 0 0,0
08.12.2019 04:00:00 3,7 2,5 1,6 6,6 9,9 12 6 19 11 S 1022,1 35 0 0,0
08.12.2019 03:00:00 4,6 3,6 2,3 6,7 9,9 13 7 16 9 S 1022,4 31 0 0,0
08.12.2019 02:00:00 3,7 3,0 1,7 6,8 9,9 10 5 11 6 S 1022,9 13 0 0,0
08.12.2019 01:00:00 5,1 4,5 2,3 6,8 9,9 3 1 7 4 E 1023,0 9 0 0,0
08.12.2019 00:00:00 5,1 4,1 2,4 6,9 9,9 4 2 8 4 SSE 1023,6 6 0 0,0
07.12.2019 23:00:00 5,6 4,7 4,0 6,9 9,9 4 2 7 4 ENE 1023,6 11 0 0,0
07.12.2019 22:00:00 6,4 5,2 5,4 7,0 9,9 7 4 11 6 WSW 1023,1 12 0 0,0
07.12.2019 21:00:00 6,8 5,6 5,4 7,0 9,9 2 1 8 4 WSW 1023,2 13 0 0,0
07.12.2019 20:00:00 6,5 5,1 4,6 7,0 9,9 2 1 8 4 E 1023,3 12 0 0,0
07.12.2019 19:00:00 6,5 5,4 4,1 7,0 9,9 5 3 9 5 ENE 1023,0 11 0 0,0
07.12.2019 18:00:00 8,4 5,9 6,7 7,0 9,9 5 3 15 8 WSW 1022,4 15 0 0,0
07.12.2019 17:00:00 9,4 6,3 8,5 6,8 9,9 6 3 14 8 WSW 1021,9 17 0 0,0
07.12.2019 16:00:00 9,9 6,4 10,1 6,6 9,9 5 3 17 9 NW 1021,8 19 0 0,0
07.12.2019 15:00:00 12,4 4,8 12,6 6,4 9,9 5 3 14 8 SSW 1020,6 60 0 0,0
07.12.2019 14:00:00 12,2 4,9 12,6 6,1 10,0 9 5 16 9 S 1020,8 60 0 0,0
07.12.2019 13:00:00 11,6 5,2 12,3 5,8 10,0 10 5 16 8 S 1021,2 60 0 0,0
07.12.2019 12:00:00 11,3 5,0 11,4 5,6 10,0 7 4 17 9 SSE 1021,8 60 0 0,0
07.12.2019 11:00:00 10,3 4,9 9,9 5,5 10,0 12 6 18 10 SSE 1022,5 58 0 0,0
07.12.2019 10:00:00 9,2 4,2 7,8 5,4 10,0 12 6 14 8 SSE 1022,4 60 0 0,0
07.12.2019 09:00:00 7,7 4,3 5,4 5,4 10,0 8 5 11 6 S 1022,4 60 0 0,0
07.12.2019 08:00:00 6,8 3,4 3,3 5,4 10,0 3 1 14 7 SE 1022,3 60 0 0,0
07.12.2019 07:00:00 6,2 2,5 0,9 5,4 10,0 13 7 16 9 S 1021,8 60 0 0,0
07.12.2019 06:00:00 6,1 2,2 2,8 5,4 10,0 8 5 13 7 SE 1021,2 60 0 0,0
07.12.2019 05:00:00 6,7 3,1 5,4 5,3 10,1 3 2 15 8 SSE 1021,0 46 0 0,0
07.12.2019 04:00:00 8,2 2,8 4,5 5,2 10,1 10 5 18 10 SSE 1020,7 60 0 0,0
07.12.2019 03:00:00 7,4 2,1 4,5 5,2 10,1 10 5 21 11 SSE 1020,9 60 0 0,0
07.12.2019 02:00:00 9,8 2,9 6,7 5,1 10,1 13 7 22 12 SSE 1020,4 60 0 0,0
07.12.2019 01:00:00 8,2 4,0 6,4 5,0 10,1 10 6 20 11 S 1020,8 59 0 0,0
07.12.2019 00:00:00 8,4 3,2 5,8 4,9 10,1 11 6 21 11 S 1020,8 44 0 0,0
06.12.2019 23:00:00 8,0 2,9 6,1 4,9 10,1 11 6 17 9 S 1021,2 50 0 0,0
06.12.2019 22:00:00 7,5 2,8 5,0 4,9 10,2 15 8 26 14 S 1021,2 43 0 0,0
06.12.2019 21:00:00 5,8 2,8 1,1 4,9 10,1 15 8 19 10 SSE 1020,9 36 0 0,0
06.12.2019 20:00:00 3,2 1,9 -0,7 5,0 10,1 6 3 10 5 SSE 1021,4 19 0 0,0
06.12.2019 19:00:00 2,6 1,6 -1,3 5,0 10,2 5 3 7 4 SE 1021,6 9 0 0,0
06.12.2019 18:00:00 3,9 2,4 -1,0 4,9 10,2 3 2 5 3 S 1021,2 10 0 0,0
06.12.2019 17:00:00 6,2 2,6 2,5 4,7 10,2 0 0 5 3 N 1020,8 12 25 0,0
06.12.2019 16:00:00 8,5 3,1 10,7 4,4 10,2 2 1 9 5 E 1020,5 15 60 0,0
06.12.2019 15:00:00 9,9 2,7 13,7 4,0 10,2 2 1 11 6 WSW 1020,7 15 60 0,0
06.12.2019 14:00:00 7,8 2,7 13,6 3,8 10,3 7 4 11 6 NNW 1021,7 15 60 0,0
06.12.2019 13:00:00 6,3 2,0 11,7 3,8 10,3 3 2 11 6 NNE 1022,4 13 60 0,0
06.12.2019 12:00:00 4,9 1,2 7,2 3,9 10,3 4 2 9 5 NNW 1023,7 11 60 0,0
06.12.2019 11:00:00 2,7 0,3 4,6 3,9 10,3 5 3 9 5 NNW 1025,1 11 60 0,0
06.12.2019 10:00:00 0,6 -0,9 -1,0 4,0 10,3 3 1 8 4 S 1025,6 8 60 0,0
06.12.2019 09:00:00 -2,8 -3,3 -7,4 4,0 10,3 4 2 10 5 N 1025,9 6 24 -
06.12.2019 08:00:00 -4,3 -5,0 -7,7 4,1 10,3 0 0 6 3 N 1026,2 5 0 0,0
06.12.2019 07:00:00 -4,3 -4,8 -7,3 4,2 10,3 2 1 8 4 N 1025,9 7 0 0,0
06.12.2019 06:00:00 -4,2 -4,7 -7,5 4,3 10,4 4 2 6 4 SE 1025,8 8 0 0,0
06.12.2019 05:00:00 -4,5 -5,2 -7,5 4,3 10,4 5 3 6 4 NE 1026,1 5 0 0,0
06.12.2019 04:00:00 -4,7 -5,2 -7,5 4,4 10,4 8 4 10 5 S 1026,1 3,8 0 0,0
06.12.2019 03:00:00 -3,5 -3,8 -6,9 4,5 10,4 5 3 9 5 N 1026,1 3,5 0 0,0
06.12.2019 02:00:00 -3,5 -4,0 -6,5 4,6 10,4 3 2 7 4 E 1026,0 1,1 0 0,0
06.12.2019 01:00:00 -2,1 -2,4 -5,9 4,7 10,4 4 2 9 5 SE 1026,2 0,4 0 0,0
06.12.2019 00:00:00 -1,7 -2,3 -5,6 4,8 10,5 5 3 12 7 W 1026,3 4,3 0 0,0
05.12.2019 23:00:00 -1,6 -1,9 -5,9 4,9 10,5 9 5 10 6 S 1026,2 10 0 0,0
05.12.2019 22:00:00 -1,3 -1,6 -5,9 5,0 10,5 3 2 6 3 S 1026,4 0,6 0 0,0
05.12.2019 21:00:00 -1,7 -2,0 -4,8 5,1 10,5 5 3 10 6 S 1026,5 3,7 0 0,0
05.12.2019 20:00:00 -1,7 -2,0 -4,7 5,2 10,5 7 4 10 5 S 1026,8 3,4 0 0,0
05.12.2019 19:00:00 0,0 -0,6 -4,0 5,3 10,5 3 1 7 4 ENE 1026,1 2,2 0 0,0
05.12.2019 18:00:00 1,9 1,3 -2,4 5,3 10,5 5 3 10 5 SE 1025,2 7 0 0,0
05.12.2019 17:00:00 4,1 1,6 0,7 5,1 10,5 3 1 8 5 NW 1024,8 11 23 0,0
05.12.2019 16:00:00 5,9 2,9 7,1 4,9 10,5 4 2 9 5 N 1024,1 10 47 0,0
05.12.2019 15:00:00 7,4 3,3 10,1 4,6 10,6 5 3 9 5 NNE 1023,6 9 45 0,0
05.12.2019 14:00:00 6,7 2,8 9,9 4,4 10,6 3 2 9 5 NW 1023,8 10 41 0,0
05.12.2019 13:00:00 6,7 3,3 11,3 4,3 10,6 5 3 10 5 NW 1024,1 11 60 0,0
05.12.2019 12:00:00 5,8 2,1 8,2 4,3 10,6 4 2 8 4 NW 1024,8 12 60 0,0
05.12.2019 11:00:00 2,9 0,9 5,4 4,3 10,6 5 3 8 4 NNE 1025,6 11 60 0,0
05.12.2019 10:00:00 1,1 0,5 -0,8 4,4 10,6 0 0 5 3 N 1025,3 9 60 0,0
05.12.2019 09:00:00 -3,1 -3,4 -7,5 4,5 10,6 3 1 5 3 W 1026,0 3,6 27 0,0
05.12.2019 08:00:00 -4,0 -4,5 -7,4 4,5 10,6 0 0 7 4 N 1025,5 0,3 0 0,0
05.12.2019 07:00:00 -3,2 -3,5 -7,2 4,6 10,6 2 1 4 2 W 1024,5 5 0 0,0
05.12.2019 06:00:00 -3,8 -4,3 -7,4 4,7 10,6 0 0 4 2 N 1024,1 4,4 0 0,0
05.12.2019 05:00:00 -2,9 -3,2 -6,9 4,8 10,6 2 1 3 2 ESE 1023,9 0,5 0 0,0
05.12.2019 04:00:00 -2,5 -2,8 -6,7 4,9 10,7 2 1 5 3 WSW 1023,9 0,8 0 0,0
05.12.2019 03:00:00 -2,2 -2,5 -5,8 5,0 10,7 3 1 10 5 WNW 1023,8 2,0 0 0,0
05.12.2019 02:00:00 -1,9 -2,3 -4,8 5,0 10,7 4 2 8 5 N 1023,3 0,9 0 0,0
05.12.2019 01:00:00 -1,2 -1,6 -2,7 5,1 10,7 3 1 5 3 ENE 1023,1 6 0 0,0
05.12.2019 00:00:00 -1,1 -1,4 -3,5 5,2 10,7 3 1 6 4 NE 1022,8 6 0 0,0
04.12.2019 23:00:00 -1,9 -2,2 -4,7 5,3 10,7 4 2 5 3 SSE 1022,6 6 0 0,0
04.12.2019 22:00:00 -1,4 -1,7 -4,8 5,5 10,7 2 1 8 4 NNE 1022,4 3,5 0 0,0
04.12.2019 21:00:00 -1,5 -2,1 -4,5 5,6 10,7 4 2 9 5 SSE 1022,6 7 0 0,0
04.12.2019 20:00:00 -0,8 -1,4 -4,6 5,7 10,7 6 4 8 4 S 1022,1 7 0 0,0
04.12.2019 19:00:00 0,2 -0,5 -3,4 5,8 10,8 3 1 7 4 N 1021,4 8 0 0,0

tt = Température de l'air
td = dewpoint
tt 5cm = Température de l'air 5cm
tt -20cm = Température de l'air -20cm
tt -100cm = Température de l'air -100cm
ff = Vitesse du vent
fx = gusts
dd = Direction du vent
ppp = reduced air pressure
vv = visibility
sd = Ensoleillement
rr = Quantités de précipitations

stations d'obs. à proximité